Weather History for Perry, FL

Change the Weather History Date:

Monday, July 8, 2013

  Actual Average (KCTY) Record (KCTY)
Temperature  
Mean Temperature 82 °F 81 °F  
Max Temperature 93 °F 91 °F 95 °F (2010)
Min Temperature 71 °F 71 °F 66 °F (2010)
Degree Days  
Heating Degree Days 0 0  
Month to date heating degree days 0  
Since 1 June heating degree days 0  
Since 1 July heating degree days 0  
Cooling Degree Days 17 16  
Month to date cooling degree days 128  
Year to date cooling degree days 1054  
Since 1 June cooling degree days 575  
Growing Degree Days 32 (Base 50)    
Moisture  
Dew Point 72 °F    
Average Humidity 80    
Maximum Humidity 94    
Minimum Humidity 49    
Precipitation  
Precipitation 0.04 in 0.16 in 0.83 in (2008)
Month to date precipitation 1.30  
Year to date precipitation 23.56  
Sea Level Pressure  
Sea Level Pressure 30.15 in    
Wind  
Wind Speed 3 mph (ESE)    
Max Wind Speed 12 mph    
Max Gust Speed -    
Visibility 10 miles    
Events Thunderstorm    
T = Trace of Precipitation, MM = Missing Value Source: NWS Daily Summary

Daily Weather History Graph

Daily Weather History Graph

Search for Another Location

Airport:

Trip Planner

Search our weather history database for the weather conditions in past years. The results will help you decide how hot, cold, wet, or windy it might be!

Date:

Astronomy

Jul. 08, 2013 Rise Set
Actual Time 6:39 AM EDT 8:38 PM EDT
Civil Twilight 6:12 AM EDT 9:06 PM EDT
Nautical Twilight 5:39 AM EDT 9:38 PM EDT
Astronomical Twilight 5:04 AM EDT 10:13 PM EDT
Moon 7:01 AM EDT (7/8) 8:48 PM EDT (7/8)
Length of Visible Light 14h 53m
Length of Day
13h 59m
New Moon, 0% of the Moon is Illuminated
Jul 8
New Moon
Jul 15
First Quarter
Jul 22
Full
Jul 29
Last Quarter
Aug 6
New

Hourly Weather History & Observations

Time (EDT) Temp. Heat Index Dew Point Humidity Pressure Visibility Wind Dir Wind Speed Gust Speed Precip Events Conditions
12:15 AM 75.2 °F - 71.6 °F 89% 30.15 in 10.0 mi Calm Calm - N/A   Clear
12:35 AM 73.4 °F - 71.6 °F 94% 30.16 in 10.0 mi Calm Calm - N/A   Scattered Clouds
12:53 AM 75.9 °F - 72.0 °F 87% 30.14 in - Calm Calm - N/A   Unknown
12:55 AM 73.4 °F - 71.6 °F 94% 30.16 in 10.0 mi Calm Calm - N/A   Scattered Clouds
1:15 AM 73.4 °F - 71.6 °F 94% 30.15 in 10.0 mi Calm Calm - N/A   Scattered Clouds
1:35 AM 73.4 °F - 71.6 °F 94% 30.15 in 10.0 mi Calm Calm - N/A   Clear
1:53 AM 75.0 °F - 72.0 °F 90% 30.13 in - Calm Calm - N/A   Unknown
1:55 AM 73.4 °F - 71.6 °F 94% 30.15 in 10.0 mi Calm Calm - N/A   Clear
2:15 AM 73.4 °F - 71.6 °F 94% 30.14 in 10.0 mi East 3.5 mph - N/A   Mostly Cloudy
2:35 AM 73.4 °F - 71.6 °F 94% 30.13 in 10.0 mi Calm Calm - N/A   Scattered Clouds
2:53 AM 75.0 °F - 72.0 °F 90% 30.12 in - Calm Calm - N/A   Unknown
2:55 AM 73.4 °F - 71.6 °F 94% 30.13 in 10.0 mi Calm Calm - N/A   Clear
3:15 AM 73.4 °F - 71.6 °F 94% 30.13 in 10.0 mi Calm Calm - N/A   Clear
3:35 AM 71.6 °F - 69.8 °F 94% 30.14 in 10.0 mi Calm Calm - N/A   Clear
3:53 AM 73.9 °F - 71.1 °F 91% 30.13 in - Calm Calm - N/A   Unknown
3:55 AM 71.6 °F - 69.8 °F 94% 30.14 in 10.0 mi Calm Calm - N/A   Clear
4:15 AM 71.6 °F - 69.8 °F 94% 30.14 in 10.0 mi Calm Calm - N/A   Clear
4:35 AM 71.6 °F - 69.8 °F 94% 30.15 in 10.0 mi North 3.5 mph - N/A   Scattered Clouds
4:53 AM 73.9 °F - 71.1 °F 91% 30.13 in - NNE 3.5 mph - N/A   Unknown
4:55 AM 71.6 °F - 69.8 °F 94% 30.14 in 10.0 mi NE 3.5 mph - N/A   Scattered Clouds
5:15 AM 71.6 °F - 69.8 °F 94% 30.14 in 10.0 mi Calm Calm - N/A   Clear
5:35 AM 71.6 °F - 69.8 °F 94% 30.13 in 10.0 mi ENE 3.5 mph - N/A   Clear
5:53 AM 75.0 °F - 71.1 °F 87% 30.12 in - ENE 3.5 mph - N/A   Unknown
5:55 AM 73.4 °F - 71.6 °F 94% 30.14 in 10.0 mi East 3.5 mph - N/A   Clear
6:15 AM 71.6 °F - 69.8 °F 94% 30.14 in 10.0 mi Calm Calm - N/A   Clear
6:53 AM 75.0 °F - 71.1 °F 87% 30.13 in - Calm Calm - N/A   Unknown
6:55 AM 73.4 °F - 69.8 °F 88% 30.15 in 10.0 mi Calm Calm - N/A   Clear
7:15 AM 73.4 °F - 71.6 °F 94% 30.15 in 10.0 mi Calm Calm - N/A   Clear
7:35 AM 73.4 °F - 71.6 °F 94% 30.15 in 10.0 mi East 3.5 mph - N/A   Clear
7:53 AM 77.0 °F - 72.0 °F 84% 30.14 in - ENE 3.5 mph - N/A   Unknown
7:55 AM 75.2 °F - 71.6 °F 89% 30.15 in 10.0 mi ENE 3.5 mph - N/A   Clear
8:15 AM 77.0 °F - 71.6 °F 83% 30.16 in 10.0 mi ESE 4.6 mph - N/A   Clear
8:35 AM 77.0 °F - 73.4 °F 89% 30.17 in 10.0 mi ESE 5.8 mph - N/A   Clear
8:53 AM 80.1 °F 84.2 °F 73.0 °F 79% 30.16 in - East 5.8 mph - N/A   Unknown
8:55 AM 78.8 °F - 71.6 °F 78% 30.17 in 10.0 mi East 6.9 mph - N/A   Clear
9:15 AM 78.8 °F - 73.4 °F 83% 30.18 in 10.0 mi ESE 5.8 mph - N/A   Clear
9:35 AM 80.6 °F 85.4 °F 73.4 °F 79% 30.18 in 10.0 mi SE 4.6 mph - N/A   Scattered Clouds
9:53 AM 82.9 °F 89.4 °F 73.9 °F 74% 30.17 in - East 5.8 mph - N/A   Unknown
9:55 AM 80.6 °F 85.4 °F 73.4 °F 79% 30.18 in 10.0 mi SE 4.6 mph - N/A   Scattered Clouds
10:15 AM 80.6 °F 85.4 °F 73.4 °F 79% 30.18 in 10.0 mi SE 5.8 mph - N/A   Scattered Clouds
10:35 AM 82.4 °F 88.2 °F 73.4 °F 74% 30.18 in 10.0 mi SSE 8.1 mph - N/A   Scattered Clouds
10:53 AM 86.0 °F 95.1 °F 75.0 °F 70% 30.17 in - SE 6.9 mph - N/A   Unknown
10:55 AM 82.4 °F 88.2 °F 73.4 °F 74% 30.18 in 10.0 mi SE 5.8 mph - N/A   Scattered Clouds
11:15 AM 82.4 °F 88.2 °F 73.4 °F 74% 30.19 in 10.0 mi SE 5.8 mph - N/A   Scattered Clouds
11:35 AM 82.4 °F 88.2 °F 73.4 °F 74% 30.19 in 10.0 mi South 3.5 mph - N/A   Mostly Cloudy
11:53 AM 87.1 °F 95.4 °F 73.9 °F 65% 30.17 in - SSE 5.8 mph - N/A   Unknown
11:55 AM 84.2 °F 90.9 °F 73.4 °F 70% 30.19 in 10.0 mi SSE 4.6 mph - N/A   Mostly Cloudy
12:15 PM 84.2 °F 89.6 °F 71.6 °F 66% 30.18 in 10.0 mi South 3.5 mph - N/A   Mostly Cloudy
12:35 PM 84.2 °F 90.9 °F 73.4 °F 70% 30.18 in 10.0 mi Calm Calm - N/A   Overcast
12:53 PM 89.1 °F 98.0 °F 73.9 °F 61% 30.16 in - Variable 5.8 mph - N/A   Unknown
12:55 PM 86.0 °F 93.4 °F 73.4 °F 66% 30.18 in 10.0 mi ESE 5.8 mph - N/A   Mostly Cloudy
1:15 PM 86.0 °F 91.8 °F 71.6 °F 62% 30.18 in 10.0 mi Calm Calm - N/A   Mostly Cloudy
1:35 PM 87.8 °F 93.8 °F 71.6 °F 58% 30.17 in 10.0 mi Calm Calm - N/A   Mostly Cloudy
1:53 PM 89.1 °F 98.0 °F 73.9 °F 61% 30.15 in - SSE 5.8 mph - N/A   Unknown
1:55 PM 87.8 °F 93.8 °F 71.6 °F 58% 30.17 in 10.0 mi South 4.6 mph - N/A   Scattered Clouds
2:15 PM 86.0 °F 91.8 °F 71.6 °F 62% 30.15 in 10.0 mi SSE 4.6 mph - N/A   Mostly Cloudy
2:35 PM 87.8 °F 93.8 °F 71.6 °F 58% 30.14 in 10.0 mi SE 6.9 mph - N/A   Mostly Cloudy
2:53 PM 89.1 °F 95.0 °F 71.1 °F 55% 30.12 in - East 4.6 mph - N/A   Unknown
2:55 PM 87.8 °F 92.6 °F 69.8 °F 55% 30.13 in 10.0 mi East 6.9 mph - N/A   Mostly Cloudy
3:15 PM 89.6 °F 94.7 °F 69.8 °F 52% 30.13 in 10.0 mi East 6.9 mph - N/A   Mostly Cloudy
3:35 PM 89.6 °F 94.7 °F 69.8 °F 52% 30.13 in 10.0 mi SE 8.1 mph - N/A   Scattered Clouds
3:53 PM 93.0 °F 100.1 °F 71.1 °F 49% 30.11 in - SE 6.9 mph - N/A   Unknown
3:55 PM 89.6 °F 94.7 °F 69.8 °F 52% 30.13 in 10.0 mi SSE 8.1 mph - N/A   Scattered Clouds
4:15 PM 89.6 °F 93.4 °F 68.0 °F 49% 30.12 in 10.0 mi SSE 8.1 mph - N/A   Scattered Clouds
4:35 PM 87.8 °F 93.8 °F 71.6 °F 58% 30.12 in 10.0 mi SW 6.9 mph - N/A Thunderstorm Scattered Clouds
4:53 PM 87.1 °F 96.3 °F 75.0 °F 67% 30.10 in - SW 6.9 mph - N/A   Unknown
4:55 PM 86.0 °F 93.4 °F 73.4 °F 66% 30.11 in 10.0 mi SW 5.8 mph - N/A Thunderstorm Scattered Clouds
5:15 PM 84.2 °F 92.3 °F 75.2 °F 74% 30.12 in 10.0 mi West 11.5 mph - N/A Thunderstorm Clear
5:35 PM 82.4 °F 88.2 °F 73.4 °F 74% 30.12 in 10.0 mi West 6.9 mph - N/A   Scattered Clouds
5:53 PM 84.0 °F 91.9 °F 75.0 °F 74% 30.10 in - WSW 10.4 mph - N/A   Unknown
5:55 PM 82.4 °F 88.2 °F 73.4 °F 74% 30.11 in 10.0 mi WSW 9.2 mph - N/A   Scattered Clouds
6:15 PM 82.4 °F 88.2 °F 73.4 °F 74% 30.12 in 10.0 mi West 8.1 mph - N/A   Clear
6:35 PM 80.6 °F 86.2 °F 75.2 °F 84% 30.13 in 10.0 mi WNW 6.9 mph - N/A   Clear
6:53 PM 82.9 °F 90.2 °F 75.0 °F 77% 30.11 in - WNW 6.9 mph - 0.02 in   Unknown
6:55 PM 80.6 °F 86.2 °F 75.2 °F 84% 30.13 in 10.0 mi WNW 5.8 mph - N/A   Clear
7:15 PM 80.6 °F 86.2 °F 75.2 °F 84% 30.12 in 10.0 mi WNW 3.5 mph - N/A   Clear
7:35 PM 80.6 °F 86.2 °F 75.2 °F 84% 30.13 in 10.0 mi NW 4.6 mph - N/A   Clear
7:53 PM 81.0 °F 86.7 °F 75.0 °F 82% 30.11 in - NW 5.8 mph - N/A   Unknown
7:55 PM 78.8 °F - 73.4 °F 83% 30.12 in 10.0 mi NW 4.6 mph - N/A   Clear
8:15 PM 78.8 °F - 73.4 °F 83% 30.13 in 10.0 mi NNW 3.5 mph - N/A   Clear
8:35 PM 78.8 °F - 73.4 °F 83% 30.14 in 10.0 mi North 3.5 mph - N/A   Clear
8:53 PM 80.1 °F 84.5 °F 73.9 °F 81% 30.13 in - North 4.6 mph - 0.02 in   Unknown
8:55 PM 78.8 °F - 73.4 °F 83% 30.15 in 10.0 mi NNE 3.5 mph - N/A   Clear
9:15 PM 77.0 °F - 73.4 °F 89% 30.15 in 10.0 mi NNE 5.8 mph - N/A   Clear
9:35 PM 77.0 °F - 71.6 °F 83% 30.15 in 10.0 mi Calm Calm - N/A   Clear
9:53 PM 78.1 °F - 72.0 °F 81% 30.14 in - Calm Calm - N/A   Unknown
9:55 PM 77.0 °F - 71.6 °F 83% 30.16 in 10.0 mi Calm Calm - N/A   Clear
10:15 PM 77.0 °F - 71.6 °F 83% 30.16 in 10.0 mi Calm Calm - N/A   Clear
10:35 PM 77.0 °F - 71.6 °F 83% 30.17 in 10.0 mi Calm Calm - N/A   Clear
10:53 PM 77.0 °F - 72.0 °F 84% 30.16 in - WSW 3.5 mph - N/A   Unknown
10:55 PM 75.2 °F - 71.6 °F 89% 30.18 in 10.0 mi Calm Calm - N/A   Clear
11:15 PM 75.2 °F - 71.6 °F 89% 30.18 in 10.0 mi Calm Calm - N/A   Clear
11:35 PM 73.4 °F - 71.6 °F 94% 30.18 in 10.0 mi NW 3.5 mph - N/A   Scattered Clouds
11:53 PM 77.0 °F - 73.0 °F 88% 30.18 in - Calm Calm - N/A   Unknown
11:55 PM 73.4 °F - 71.6 °F 94% 30.19 in 10.0 mi Calm Calm - N/A   Mostly Cloudy